TimeCET,TemperatureF,Dew PointF,Humidity,Sea Level PressureIn,VisibilityMPH,Wind Direction,Wind SpeedMPH,Gust SpeedMPH,PrecipitationIn,Events,Conditions,WindDirDegrees,DateUTC
12:55 AM,71.6,68.0,88,29.92,6.2,SSE,17.3,-,N/A,,Partly Cloudy,150,2012-11-04 23:55:00
1:00 AM,72,69,87,29.93,7,SSE,17.3,,,,Scattered Clouds,150,2012-11-05 00:00:00
1:55 AM,71.6,68.0,88,29.92,6.2,SSE,18.4,-,N/A,,Partly Cloudy,150,2012-11-05 00:55:00
2:55 AM,71.6,68.0,88,29.89,6.2,SSE,11.5,-,N/A,,Partly Cloudy,160,2012-11-05 01:55:00
3:55 AM,71.6,68.0,88,29.86,6.2,SE,19.6,-,N/A,,Partly Cloudy,140,2012-11-05 02:55:00
4:55 AM,71.6,68.0,88,29.86,6.2,SE,17.3,-,N/A,,Partly Cloudy,140,2012-11-05 03:55:00
5:55 AM,71.6,68.0,88,29.86,6.2,SE,20.7,-,N/A,,Partly Cloudy,140,2012-11-05 04:55:00
6:55 AM,71.6,68.0,88,29.86,6.2,SSE,19.6,-,N/A,,Scattered Clouds,150,2012-11-05 05:55:00
7:00 AM,72,69,85,29.87,10,SSE,19.6,,,,Partly Cloudy,150,2012-11-05 06:00:00
7:55 AM,73.4,69.8,88,29.89,6.2,SSE,15.0,-,N/A,,Scattered Clouds,160,2012-11-05 06:55:00
8:55 AM,73.4,71.6,94,29.92,6.2,SSE,16.1,-,N/A,,Scattered Clouds,160,2012-11-05 07:55:00
9:55 AM,77.0,71.6,83,29.92,6.2,SSE,15.0,-,N/A,,Partly Cloudy,160,2012-11-05 08:55:00
10:55 AM,78.8,71.6,78,29.92,6.2,SSE,11.5,-,N/A,,Partly Cloudy,160,2012-11-05 09:55:00
11:55 AM,80.6,69.8,70,29.92,-9999.0,North,-9999.0,-,N/A,,Partly Cloudy,0,2012-11-05 10:55:00
12:55 PM,77.0,68.0,74,29.92,6.2,SSW,9.2,-,N/A,,Partly Cloudy,200,2012-11-05 11:55:00
1:00 PM,77,69,68,29.92,10,SSW,9.2,,,,Overcast,200,2012-11-05 12:00:00
1:55 PM,75.2,69.8,83,29.92,6.2,SSW,10.4,-,N/A,,Partly Cloudy,200,2012-11-05 12:55:00
2:55 PM,75.2,69.8,83,29.92,6.2,SSW,11.5,-,N/A,,Mostly Cloudy,210,2012-11-05 13:55:00
3:55 PM,73.4,69.8,88,29.95,6.2,SW,11.5,-,N/A,,Scattered Clouds,230,2012-11-05 14:55:00
4:55 PM,71.6,69.8,94,29.95,6.2,WSW,11.5,-,N/A,,Partly Cloudy,250,2012-11-05 15:55:00
5:55 PM,69.8,68.0,94,29.95,6.2,West,9.2,-,N/A,,Partly Cloudy,260,2012-11-05 16:55:00
6:55 PM,69.8,68.0,94,29.98,6.2,WNW,9.2,-,N/A,,Partly Cloudy,290,2012-11-05 17:55:00
7:00 PM,70,67,88,29.99,7,WNW,9.2,,,,Scattered Clouds,290,2012-11-05 18:00:00
7:55 PM,69.8,66.2,88,29.98,6.2,West,10.4,-,N/A,,Scattered Clouds,270,2012-11-05 18:55:00
8:55 PM,69.8,66.2,88,30.01,6.2,West,10.4,-,N/A,,Partly Cloudy,280,2012-11-05 19:55:00
9:55 PM,69.8,66.2,88,30.01,6.2,WNW,13.8,-,N/A,,Partly Cloudy,300,2012-11-05 20:55:00
10:55 PM,69.8,64.4,83,30.04,6.2,WNW,11.5,-,N/A,,Partly Cloudy,300,2012-11-05 21:55:00
11:55 PM,69.8,62.6,78,30.04,6.2,NW,11.5,-,N/A,,Partly Cloudy,320,2012-11-05 22:55:00